Luxeuil/St Sauve, France

6:13 PM CET on February 25, 2017 (GMT +0100)
Saint Sauveur Air Base

Weather History for LFSX - March, 2014

Change the Weather History Date:

Tuesday, March 11, 2014

  Actual Average Record
Temperature  
Mean Temperature 47 °F -  
Max Temperature 67 °F 54 °F 69 °F (1997)
Min Temperature 27 °F 35 °F 23 °F (2005)
Degree Days  
Heating Degree Days 18    
Moisture  
Dew Point 30 °F    
Average Humidity 63    
Maximum Humidity 93    
Minimum Humidity 8    
Precipitation  
Precipitation 0.00 in - - ()
Sea Level Pressure  
Sea Level Pressure 30.23 in    
Wind  
Wind Speed 1 mph ()    
Max Wind Speed 10 mph    
Max Gust Speed -    
Visibility 5.8 miles    
Events      
Averages and records for this station are not official NWS values.
T = Trace of Precipitation, MM = Missing Value Source: Averaged Metar Reports

Daily Weather History Graph

Daily Weather History Graph

Search for Another Location

Airport or City:

Trip Planner

Search our weather history database for the weather conditions in past years. The results will help you decide how hot, cold, wet, or windy it might be!

Date:

Astronomy

Mar. 11, 2014 Rise Set
Actual Time 6:56 AM CET 6:33 PM CET
Civil Twilight 6:25 AM CET 7:04 PM CET
Nautical Twilight 5:49 AM CET 7:40 PM CET
Astronomical Twilight 5:13 AM CET 8:17 PM CET
Moon 1:40 PM CET (3/11) 3:55 AM CET (3/11)
Length of Visible Light 12h 39m
Length of Day
11h 37m
Waxing Gibbous, 76% of the Moon is Illuminated
Mar 11
Waxing Gibbous
Mar 16
Full
Mar 24
Last Quarter
Mar 30
New
Apr 7
First Quarter

Hourly Weather History & Observations

Time (CET) Temp. Windchill Dew Point Humidity Pressure Visibility Wind Dir Wind Speed Gust Speed Precip Events Conditions
12:00 AM 39 °F - 29 °F 57% 30.24 in 5 mi Calm Calm - -   Clear
12:00 AM 39.2 °F - 28.4 °F 65% 30.18 in 5.0 mi Calm Calm - N/A   Unknown
12:30 AM 35.6 °F - 30.2 °F 81% 30.18 in 4.3 mi Calm Calm - N/A   Unknown
1:00 AM 34 °F - 31 °F 84% 30.24 in 4 mi Calm Calm - -   Clear
1:00 AM 33.8 °F - 30.2 °F 87% 30.18 in 4.3 mi Calm Calm - N/A   Unknown
1:30 AM 35.6 °F - 32.0 °F 87% 30.18 in 3.1 mi NE 1.2 mph - N/A   Mist
2:00 AM 34 °F - 29 °F 76% 30.23 in 3 mi Calm Calm - -   Mist
2:00 AM 33.8 °F - 30.2 °F 87% 30.18 in - Calm Calm - N/A   Mist
2:30 AM 32.0 °F - 30.2 °F 93% 30.18 in 3.1 mi Calm Calm - N/A   Mist
3:00 AM 32 °F - 29 °F 86% 30.25 in 4 mi Calm Calm - -   Clear
3:00 AM 32.0 °F - 30.2 °F 93% 30.18 in 3.7 mi Calm Calm - N/A   Unknown
3:30 AM 33.8 °F 30.8 °F 30.2 °F 87% 30.18 in 3.7 mi East 3.5 mph - N/A   Unknown
4:00 AM 33 °F - 30 °F 85% 30.24 in 3 mi NNE 2.3 mph - -   Clear
4:00 AM 33.8 °F - 30.2 °F 87% 30.18 in - NNE 2.3 mph - N/A   Mist
4:30 AM 30.2 °F - 28.4 °F 93% 30.18 in 3.1 mi SE 2.3 mph - N/A   Mist
5:00 AM 32 °F - 30 °F 91% 30.26 in 4 mi NE 2.3 mph - -   Clear
5:00 AM 32.0 °F - 30.2 °F 93% 30.21 in 4.3 mi Variable 2.3 mph - N/A   Unknown
5:30 AM 32.0 °F - 28.4 °F 87% 30.21 in 5.0 mi Calm Calm - N/A   Unknown
6:00 AM 28 °F - 26 °F 87% 30.28 in 3 mi Calm Calm - -   Mist
6:00 AM 28.4 °F - 26.6 °F 93% 30.21 in - Calm Calm - N/A   Mist
6:30 AM 28.4 °F - 26.6 °F 93% 30.21 in 3.1 mi Variable 1.2 mph - N/A   Mist
7:00 AM 30 °F - 29 °F 92% 30.28 in 3 mi ENE 1.2 mph - -   Clear
7:00 AM 30.2 °F - 28.4 °F 93% 30.21 in 3.1 mi Variable 1.2 mph - N/A   Mist
7:30 AM 28.4 °F - 26.6 °F 93% 30.21 in 4.3 mi Calm Calm - N/A   Unknown
8:00 AM 30 °F - 28 °F 87% 30.30 in 3 mi Calm Calm - -   Clear
8:00 AM 30.2 °F - 28.4 °F 93% 30.24 in 3.1 mi Calm Calm - N/A   Mist
8:30 AM 32.0 °F - 28.4 °F 87% 30.21 in 5.6 mi Calm Calm - N/A   Unknown
9:00 AM 33 °F - 30 °F 83% 30.30 in 2 mi Calm Calm - -   Mist
9:00 AM 33.8 °F - 30.2 °F 87% 30.24 in - Calm Calm - N/A   Mist
9:30 AM 35.6 °F - 32.0 °F 87% 30.24 in 3.7 mi Calm Calm - N/A   Unknown
10:00 AM 39 °F - 34 °F 74% 30.28 in 6 mi Calm Calm - -   Clear
10:00 AM 39.2 °F - 33.8 °F 81% 30.24 in 5.6 mi Calm Calm - N/A   Unknown
10:30 AM 44.6 °F - 35.6 °F 71% 30.24 in 5.6 mi Calm Calm - N/A   Unknown
11:00 AM 49 °F - 37 °F 52% 30.26 in 6 mi Calm Calm - -   Clear
11:00 AM 48.2 °F - 37.4 °F 66% 30.24 in 6.2 mi Calm Calm - N/A   Unknown
11:30 AM 51.8 °F - 37.4 °F 58% 30.21 in 5.6 mi Variable 1.2 mph - N/A   Unknown
12:00 PM 53 °F - 36 °F 40% 30.25 in 7 mi SE 4.6 mph - -   Clear
12:00 PM 51.8 °F - 35.6 °F 54% 30.21 in 6.2 mi SE 4.6 mph - N/A   Unknown
12:30 PM 55.4 °F - 35.6 °F 47% 30.21 in 6.2 mi Calm Calm - N/A   Unknown
1:00 PM 59 °F - 36 °F 30% 30.22 in 9 mi SSE 2.3 mph - -   Clear
1:00 PM 59.0 °F - 35.6 °F 42% 30.21 in 6.2 mi Variable 2.3 mph - N/A   Unknown
1:30 PM 62.6 °F - 33.8 °F 34% 30.21 in 6.2 mi Variable 1.2 mph - N/A   Unknown
2:00 PM 63 °F - 35 °F 23% 30.19 in 11 mi SE 2.3 mph - -   Clear
2:00 PM 62.6 °F - 33.8 °F 34% 30.18 in 6.2 mi Variable 2.3 mph - N/A   Unknown
2:30 PM 62.6 °F - 35.6 °F 37% 30.18 in 6.2 mi South 4.6 mph - N/A   Unknown
3:00 PM 66 °F - 20 °F 8% 30.19 in 12 mi ESE 4.6 mph - -   Clear
3:00 PM 66.2 °F - 19.4 °F 17% 30.18 in 6.2 mi ESE 4.6 mph - N/A   Unknown
3:30 PM 66.2 °F - 21.2 °F 18% 30.18 in 6.2 mi East 10.4 mph - N/A   Unknown
4:00 PM 64 °F - 33 °F 21% 30.19 in 12 mi ESE 6.9 mph - -   Clear
4:00 PM 64.4 °F - 33.8 °F 32% 30.18 in 6.2 mi Variable 6.9 mph - N/A   Unknown
4:30 PM 62.6 °F - 30.2 °F 30% 30.21 in 6.2 mi SE 8.1 mph - N/A   Unknown
5:00 PM 60 °F - 31 °F 22% 30.21 in 34 mi SSE 8.1 mph - -   Clear
5:00 PM 59.0 °F - 32.0 °F 36% 30.21 in 6.2 mi SSE 8.1 mph - N/A   Unknown
5:30 PM 57.2 °F - 32.0 °F 38% 30.21 in 6.2 mi Variable 2.3 mph - N/A   Unknown
6:00 PM 57 °F - 30 °F 24% 30.24 in 22 mi Calm Calm - -   Clear
6:00 PM 57.2 °F - 30.2 °F 36% 30.24 in 6.2 mi Calm Calm - N/A   Unknown
6:30 PM 55.4 °F - 30.2 °F 38% 30.24 in 6.2 mi Variable 2.3 mph - N/A   Unknown
7:00 PM 49 °F - 31 °F 36% 30.28 in 13 mi North 2.3 mph - -   Clear
7:00 PM 48.2 °F - 30.2 °F 50% 30.24 in 6.2 mi North 2.3 mph - N/A   Unknown
7:30 PM 48.2 °F - 30.2 °F 50% 30.27 in 6.2 mi Variable 2.3 mph - N/A   Unknown
8:00 PM 46 °F - 29 °F 40% 30.30 in 7 mi NE 1.2 mph - -   Clear
8:00 PM 46.4 °F - 30.2 °F 53% 30.27 in 6.2 mi Variable 1.2 mph - N/A   Unknown
8:30 PM 39.2 °F - 30.2 °F 70% 30.27 in 6.2 mi Variable 2.3 mph - N/A   Unknown
9:00 PM 41 °F - 29 °F 50% 30.34 in 10 mi NE 3.5 mph - -   Clear
9:00 PM 41.0 °F 39.0 °F 28.4 °F 61% 30.30 in 6.2 mi Variable 3.5 mph - N/A   Unknown
9:30 PM 39.2 °F - 28.4 °F 65% 30.30 in 6.2 mi Calm Calm - N/A   Unknown
10:00 PM 40 °F - 29 °F 53% 30.35 in 7 mi East 1.2 mph - -   Clear
10:00 PM 41.0 °F - 28.4 °F 61% 30.30 in 6.2 mi East 1.2 mph - N/A   Unknown
10:30 PM 37.4 °F - 28.4 °F 70% 30.30 in 6.2 mi Calm Calm - N/A   Unknown
11:00 PM 37 °F - 29 °F 62% 30.36 in 12 mi ESE 3.5 mph - -   Clear
11:00 PM 37.4 °F 34.9 °F 28.4 °F 70% 30.30 in 6.2 mi ESE 3.5 mph - N/A   Unknown
11:30 PM 35.6 °F 32.8 °F 28.4 °F 75% 30.30 in 6.2 mi Variable 3.5 mph - N/A   Unknown